GONETS-M 5              
1 39249U 13048A   19262.14884149  .00000031  00000-0  15301-3 0  9999
2 39249  82.4762  78.8242 0015672 183.8582 176.2379 12.42889730273062
GONETS-M 6              
1 39250U 13048B   19262.13012606  .00000033  00000-0  16870-3 0  9995
2 39250  82.4798  79.3785 0018032 215.9709 144.0176 12.42936307273074
GONETS-M 7              
1 39251U 13048C   19261.79961132  .00000050  00000-0  29210-3 0  9995
2 39251  82.4836  80.5947 0015675 180.5826 179.5253 12.42894226273004
BREEZE-KM R/B           
1 39252U 13048D   19261.33887849  .00000020  00000-0  32347-4 0  9991
2 39252  82.4889 341.7832 0221237 175.9057 184.3923 12.79908970281093